sat.trackr.live / text

‹ back to catalog

STARLINK-31663

NORAD 59576 · 2024-076N

PAYLOAD ACTIVE UNKNOWN

§ Identity

Operator
Country
US
Launch date
2024-04-23
Launch site
AFETR
Launch vehicle
Mass (kg)
RCS (m²)

Purposes: comms

External: N2YO · Heavens-Above · Gunter

§ Orbital elements

Epoch: 2026-05-25T03:40:18.497568Z

Period
94.27 min
Inclination
43.0050°
Eccentricity
0.0002932
Mean motion
15.27569092 rev/d
Perigee alt
481.1 km
Apogee alt
485.1 km
Semi-major
6,861.2 km
B*
4.7188e-5
RAAN
297.4413°
Arg perigee
272.3590°
Mean anomaly
87.6926°
Rev number
11,819

§ Raw data

STARLINK-316631 59576U 24076N   26145.15299187  .00001036  00000+0  47188-4 0  99922 59576  43.0050 297.4413 0002932 272.3590  87.6926 15.27569092118194

JSON: /api/v1/satellites/59576 · /tle

For live sub-satellite position, see the globe view (requires WebGL).

§ Visibility from observer

Set your observer location to see the next 7 days of passes ≥ 10°. The values pass through the URL so the page stays shareable.

No JS? Fill the form by hand. The geolocation button needs JavaScript.